Location: Jaite
(41.2884°N, 81.5737°W)
Time: 12:49:17
(UTC+00:00)

USA 267 - Pass Details

Date: 15 November 2025
Orbit: 1100 x 1108 km, 123.0° (Epoch: 21 November)

Event Time Altitude Azimuth Distance (km) Brightness Sun altitude
Rises 10:28:39 0° 45° (NE) 3,923 6.7 -19.9°
Reaches altitude 10° 10:31:13 10° 40° (NE) 2,962 5.9 -19.5°
Maximum altitude 10:37:26 49° 329° (NNW) 1,396 3.5 -18.3°
Enters shadow 10:40:53 26° 269° (W) 2,015 4.0 -17.7°
